When you browse on this site, cookies collect data to enhance your experience and personalize the content and advertising you see.
Visit our Privacy Policy to learn more. By continuing to use the site, you agree to this use of cookies and data.
  • In Sweden
  • List of Countries
  • For 7 days
  • Water Temperature
  • Satellite Maps
  • Weather Map
  • Weather Widgets
  • user-avatar
    Login

    Hourly Weather Bolvadin

    Today, 19 November, Monday

    Time Temperature Precipitation Wind Pressure Humidity
    00:00 +9°C° 0 mm 2 mps 676 mmHg 87%
    01:00 +9°C° 0 mm 2 mps 675 mmHg 88%
    02:00 +9°C° 0 mm 2 mps 675 mmHg 90%
    03:00 +9°C° 0 mm 2 mps 675 mmHg 90%
    04:00 +8°C° 0 mm 2 mps 675 mmHg 90%
    05:00 +8°C° 0 mm 2 mps 675 mmHg 90%
    06:00 +8°C° 0 mm 2 mps 675 mmHg 89%
    07:00 +9°C° 0 mm 2 mps 676 mmHg 87%
    08:00 +9°C° 0 mm 3 mps 676 mmHg 85%
    09:00 +11°C° 0 mm 3 mps 676 mmHg 75%
    10:00 +12°C° 0 mm 3 mps 676 mmHg 65%
    11:00 +14°C° 0 mm 4 mps 677 mmHg 55%
    12:00 +15°C° 0 mm 4 mps 677 mmHg 53%
    13:00 +15°C° 0 mm 4 mps 677 mmHg 50%
    14:00 +16°C° 0 mm 5 mps 677 mmHg 48%
    15:00 +15°C° 0 mm 4 mps 677 mmHg 52%
    16:00 +14°C° 0 mm 3 mps 677 mmHg 57%
    17:00 +13°C° 0 mm 3 mps 677 mmHg 62%
    18:00 +12°C° 0 mm 3 mps 677 mmHg 65%
    19:00 +12°C° 0 mm 3 mps 677 mmHg 69%
    20:00 +12°C° 0 mm 2 mps 677 mmHg 72%
    21:00 +12°C° 0 mm 2 mps 677 mmHg 75%
    22:00 +10°C° 0 mm 2 mps 677 mmHg 78%
    23:00 +10°C° 0 mm 2 mps 677 mmHg 81%

    Tomorrow, 20 November, Tuesday

    Time Temperature Precipitation Wind Pressure Humidity
    00:00 +9°C° 0 mm 2 mps 678 mmHg 83%
    01:00 +9°C° 0 mm 2 mps 678 mmHg 85%
    02:00 +8°C° 0 mm 2 mps 678 mmHg 86%
    03:00 +8°C° 0 mm 2 mps 678 mmHg 87%
    04:00 +8°C° 0 mm 2 mps 678 mmHg 87%
    05:00 +8°C° 0 mm 2 mps 678 mmHg 88%
    06:00 +8°C° 0 mm 2 mps 678 mmHg 86%
    07:00 +9°C° 0 mm 2 mps 679 mmHg 84%
    08:00 +9°C° 0 mm 2 mps 679 mmHg 82%
    09:00 +12°C° 0 mm 2 mps 679 mmHg 74%
    10:00 +13°C° 0 mm 2 mps 680 mmHg 65%
    11:00 +15°C° 0 mm 2 mps 680 mmHg 57%
    12:00 +16°C° 0 mm 2 mps 680 mmHg 54%
    13:00 +16°C° 0 mm 2 mps 679 mmHg 50%
    14:00 +17°C° 0 mm 2 mps 679 mmHg 47%
    15:00 +16°C° 0 mm 2 mps 679 mmHg 51%
    16:00 +15°C° 0 mm 2 mps 678 mmHg 56%
    17:00 +14°C° 0 mm 1 mps 678 mmHg 60%
    18:00 +13°C° 0 mm 1 mps 678 mmHg 62%
    19:00 +13°C° 0 mm 1 mps 678 mmHg 64%
    20:00 +12°C° 0 mm 1 mps 678 mmHg 66%
    21:00 +12°C° 0 mm 1 mps 678 mmHg 67%
    22:00 +12°C° 0 mm 1 mps 678 mmHg 68%
    23:00 +12°C° 0 mm 1 mps 677 mmHg 69%

    Day after tomorrow, 21 November, Wednesday

    Time Temperature Precipitation Wind Pressure Humidity
    00:00 +12°C° 0 mm 1 mps 677 mmHg 70%
    01:00 +12°C° 0 mm 2 mps 677 mmHg 71%
    02:00 +12°C° 0 mm 2 mps 677 mmHg 72%
    03:00 +10°C° 0 mm 2 mps 677 mmHg 73%
    04:00 +10°C° 0 mm 2 mps 676 mmHg 75%
    05:00 +10°C° 0 mm 2 mps 676 mmHg 76%
    06:00 +10°C° 0 mm 2 mps 676 mmHg 76%
    07:00 +10°C° 0 mm 2 mps 676 mmHg 75%
    08:00 +12°C° 0 mm 2 mps 676 mmHg 75%
    09:00 +12°C° 0 mm 3 mps 676 mmHg 66%
    10:00 +13°C° 0 mm 3 mps 676 mmHg 57%
    11:00 +16°C° 0 mm 3 mps 676 mmHg 48%
    12:00 +15°C° 0.1 mm 4 mps 676 mmHg 49%
    13:00 +14°C° 0.1 mm 4 mps 675 mmHg 50%
    14:00 +14°C° 0.1 mm 5 mps 675 mmHg 51%
    15:00 +13°C° 0.1 mm 4 mps 674 mmHg 57%
    16:00 +12°C° 0.1 mm 3 mps 674 mmHg 62%
    17:00 +11°C° 0.1 mm 3 mps 674 mmHg 67%
    18:00 +11°C° 0 mm 3 mps 674 mmHg 70%
    19:00 +10°C° 0 mm 3 mps 674 mmHg 74%
    20:00 +10°C° 0 mm 3 mps 674 mmHg 77%
    21:00 +10°C° 0 mm 3 mps 674 mmHg 80%
    22:00 +9°C° 0 mm 3 mps 674 mmHg 82%
    23:00 +9°C° 0 mm 3 mps 674 mmHg 85%

    22 November, Thursday

    Time Temperature Precipitation Wind Pressure Humidity
    00:00 +9°C° 0 mm 2 mps 673 mmHg 87%
    01:00 +8°C° 0 mm 2 mps 673 mmHg 88%
    02:00 +8°C° 0 mm 2 mps 673 mmHg 90%
    03:00 +7°C° 0 mm 2 mps 673 mmHg 91%
    04:00 +7°C° 0 mm 2 mps 673 mmHg 91%
    05:00 +8°C° 0 mm 1 mps 673 mmHg 92%
    06:00 +8°C° 0 mm 1 mps 673 mmHg 90%
    07:00 +9°C° 0 mm 1 mps 673 mmHg 89%
    08:00 +9°C° 0 mm 1 mps 674 mmHg 88%
    09:00 +10°C° 0 mm 1 mps 674 mmHg 79%
    10:00 +12°C° 0 mm 1 mps 674 mmHg 70%
    11:00 +13°C° 0 mm 1 mps 674 mmHg 62%
    12:00 +13°C° 0 mm 1 mps 674 mmHg 58%
    13:00 +14°C° 0 mm 2 mps 673 mmHg 55%
    14:00 +14°C° 0 mm 2 mps 673 mmHg 51%
    15:00 +13°C° 0 mm 2 mps 673 mmHg 55%
    16:00 +13°C° 0 mm 2 mps 673 mmHg 60%
    17:00 +12°C° 0 mm 2 mps 673 mmHg 64%
    18:00 +10°C° 0 mm 2 mps 673 mmHg 69%
    19:00 +9°C° 0 mm 2 mps 674 mmHg 74%
    20:00 +9°C° 0 mm 2 mps 674 mmHg 79%
    21:00 +8°C° 0 mm 2 mps 674 mmHg 82%
    22:00 +8°C° 0 mm 2 mps 674 mmHg 85%
    23:00 +8°C° 0 mm 3 mps 675 mmHg 88%

    23 November, Friday

    Time Temperature Precipitation Wind Pressure Humidity
    00:00 +8°C° 0 mm 3 mps 675 mmHg 88%
    01:00 +8°C° 0 mm 3 mps 675 mmHg 87%
    02:00 +7°C° 0 mm 3 mps 675 mmHg 87%
    03:00 +7°C° 0.1 mm 3 mps 675 mmHg 88%
    04:00 +7°C° 0.1 mm 3 mps 675 mmHg 88%
    05:00 +7°C° 0.1 mm 3 mps 675 mmHg 88%
    06:00 +7°C° 0 mm 3 mps 676 mmHg 87%
    07:00 +5°C° 0 mm 3 mps 676 mmHg 86%
    08:00 +5°C° 0 mm 3 mps 676 mmHg 86%
    09:00 +7°C° 0.1 mm 3 mps 676 mmHg 83%
    10:00 +6°C° 0.1 mm 4 mps 676 mmHg 80%
    11:00 +6°C° 0.1 mm 4 mps 676 mmHg 78%
    12:00 +6°C° 0.1 mm 4 mps 676 mmHg 76%
    13:00 +7°C° 0.1 mm 4 mps 676 mmHg 74%
    14:00 +7°C° 0.1 mm 4 mps 676 mmHg 73%
    15:00 +7°C° 0.1 mm 4 mps 676 mmHg 74%
    16:00 +6°C° 0.1 mm 4 mps 676 mmHg 75%
    17:00 +6°C° 0.1 mm 4 mps 677 mmHg 76%
    18:00 +6°C° 0.1 mm 4 mps 677 mmHg 77%
    19:00 +5°C° 0.1 mm 4 mps 677 mmHg 77%
    20:00 +5°C° 0.1 mm 4 mps 678 mmHg 78%
    21:00 +5°C° 0.1 mm 4 mps 678 mmHg 78%
    22:00 +4°C° 0.1 mm 4 mps 678 mmHg 79%
    23:00 +4°C° 0.1 mm 4 mps 678 mmHg 79%

    24 November, Saturday

    Time Temperature Precipitation Wind Pressure Humidity
    00:00 +4°C° 0 mm 3 mps 678 mmHg 80%
    01:00 +3°C° 0 mm 3 mps 678 mmHg 80%
    02:00 +3°C° 0 mm 3 mps 678 mmHg 81%
    03:00 +2°C° 0 mm 3 mps 678 mmHg 82%
    04:00 +2°C° 0 mm 3 mps 678 mmHg 83%
    05:00 +1°C° 0 mm 3 mps 678 mmHg 84%
    06:00 +1°C° 0 mm 3 mps 679 mmHg 83%
    07:00 +1°C° 0 mm 3 mps 679 mmHg 82%
    08:00 +1°C° 0 mm 3 mps 679 mmHg 80%
    09:00 +2°C° 0 mm 3 mps 679 mmHg 72%
    10:00 +3°C° 0 mm 4 mps 679 mmHg 64%
    11:00 +4°C° 0 mm 4 mps 679 mmHg 56%
    12:00 +5°C° 0 mm 4 mps 679 mmHg 55%
    13:00 +6°C° 0 mm 4 mps 678 mmHg 53%
    14:00 +6°C° 0 mm 4 mps 678 mmHg 52%
    15:00 +6°C° 0 mm 4 mps 678 mmHg 55%
    16:00 +5°C° 0 mm 3 mps 678 mmHg 58%
    17:00 +4°C° 0 mm 3 mps 678 mmHg 61%
    18:00 +5°C° 0 mm 2 mps 678 mmHg 63%
    19:00 +4°C° 0 mm 2 mps 678 mmHg 65%
    20:00 +4°C° 0 mm 2 mps 678 mmHg 68%
    21:00 +4°C° 0 mm 2 mps 678 mmHg 70%
    22:00 +3°C° 0 mm 2 mps 678 mmHg 72%
    23:00 +3°C° 0 mm 2 mps 678 mmHg 74%
    Show more